Qianfan 05-04

operational
NORAD ID: 63162 Int'l Des: 2025-046 Owner: YUANX Country: CN Constellation: qianfan
LEOCIRCULARPOLAR

Qianfan 05-04について

説明を読み込み中...

リアルタイム位置

3D地球を読み込み中...

次回通過

高度履歴

Altitude vs Time

uPlot chart will show altitude changes over time

軌道要素

1 63162U 25046D 25304.28144733 -.00000093 00000-0 -16235-3 0 9995
2 63162 88.9764 324.5240 0011894 247.0507 112.9390 13.50970865 41622
Epoch: Oct 31, 2025 • Age: 9 hours

現在のステータス

高度 1076.3 km
速度 7.31 km/s
衛星直下点 -16.07°S, 50.55°E
打ち上げ日 Mar 11, 2025
運用期間 0.6 years
タイプ internet

技術仕様

分類 Payload
質量 267.00 kg
乾燥質量 267.00 kg
総質量 267.00 kg
長さ 0.30 m
直径 3.00 m
スパン 10.00 m
形状 Box+pan
製造者 GESIH
バスタイプ Qianfan
フェーズステータス In Orbit
所有者/国 YUANX/CN

大規模コンステレーション

Loading constellations...